Location: *
(38.9555°S, 57.3572°E)
Time: 01:20:15
(UTC+00:00)

H-2A R/B - Pass Details

Date: 15 July 2020
Orbit: 500 x 542 km, 97.3° (Epoch: 17 June)

Event Time Altitude Azimuth Distance (km) Brightness Sun altitude
Rises 13:57:04 0° 167° (SSE) 2,689 6.0 -9.6°
Reaches altitude 10° 13:59:13 10° 165° (SSE) 1,784 5.1 -10.0°
Maximum altitude 14:03:03 77° 79° (E) 540 2.6 -10.7°
Drops below altitude 10° 14:06:48 10° 352° (N) 1,733 5.7 -11.4°
Sets 14:08:51 0° 350° (N) 2,604 6.7 -11.8°
